Fryeburg, ME

4:09 PM EDT on September 19, 2017 (GMT -0400)
Eastern Slopes Regional

Weather History for KIZG - May, 2014

Change the Weather History Date:

Tuesday, May 6, 2014

  Actual Average Record
Temperature  
Mean Temperature 50 °F -  
Max Temperature 62 °F 63 °F 81 °F (2002)
Min Temperature 35 °F 36 °F 28 °F (2001)
Degree Days  
Heating Degree Days 16    
Moisture  
Dew Point 33 °F    
Average Humidity 59    
Maximum Humidity 93    
Minimum Humidity 30    
Precipitation  
Precipitation 0.00 in - - ()
Sea Level Pressure  
Sea Level Pressure 29.88 in    
Wind  
Wind Speed 3 mph (NW)    
Max Wind Speed 17 mph    
Max Gust Speed 22 mph    
Visibility 10 miles    
Events Rain    
Averages and records for this station are not official NWS values.
T = Trace of Precipitation, MM = Missing Value Source: NWS Daily Summary

Daily Weather History Graph

Daily Weather History Graph

Search for Another Location

Airport or City:

Trip Planner

Search our weather history database for the weather conditions in past years. The results will help you decide how hot, cold, wet, or windy it might be!

Date:

Astronomy

May. 06, 2014 Rise Set
Actual Time 5:28 AM EDT 7:52 PM EDT
Civil Twilight 4:56 AM EDT 8:25 PM EDT
Nautical Twilight 4:16 AM EDT 9:05 PM EDT
Astronomical Twilight 3:31 AM EDT 9:51 PM EDT
Moon 11:44 AM EDT (5/6) 1:08 AM EDT (5/6)
Length of Visible Light 15h 28m
Length of Day
14h 24m
Waxing Crescent, 46% of the Moon is Illuminated
May 6
Waxing Crescent
May 6
First Quarter
May 14
Full
May 21
Last Quarter
May 28
New

Hourly Weather History & Observations

Time (EDT) Temp. Windchill Dew Point Humidity Pressure Visibility Wind Dir Wind Speed Gust Speed Precip Events Conditions
12:54 AM 44.1 °F - 36.0 °F 73% 29.83 in 10.0 mi Calm Calm - N/A   Clear
1:54 AM 45.0 °F - 36.0 °F 71% 29.83 in 10.0 mi Calm Calm - N/A   Clear
2:54 AM 41.0 °F - 36.0 °F 82% 29.82 in 10.0 mi Calm Calm - N/A   Clear
3:54 AM 39.0 °F - 36.0 °F 89% 29.82 in 10.0 mi Calm Calm - N/A   Scattered Clouds
4:54 AM 37.9 °F - 36.0 °F 93% 29.82 in 10.0 mi Calm Calm - N/A   Overcast
5:54 AM 37.0 °F - 35.1 °F 93% 29.83 in 10.0 mi Calm Calm - N/A   Scattered Clouds
7:54 AM 51.1 °F - 37.0 °F 59% 29.84 in 10.0 mi Variable 3.5 mph - N/A   Clear
8:54 AM 55.0 °F - 33.1 °F 43% 29.83 in 10.0 mi West 6.9 mph - N/A   Clear
10:54 AM 59.0 °F - 33.1 °F 38% 29.84 in 5.0 mi Variable 4.6 mph - N/A   Haze
11:54 AM 60.1 °F - 30.9 °F 33% 29.84 in 10.0 mi NW 9.2 mph - N/A   Mostly Cloudy
12:54 PM 60.1 °F - 30.9 °F 33% 29.83 in 10.0 mi West 8.1 mph - N/A   Mostly Cloudy
1:54 PM 62.1 °F - 30.0 °F 30% 29.83 in 10.0 mi Variable 6.9 mph - N/A   Mostly Cloudy
2:54 PM 57.0 °F - 33.1 °F 40% 29.85 in 10.0 mi North 10.4 mph - 0.00 in Rain Light Rain
3:54 PM 55.9 °F - 30.9 °F 39% 29.86 in 10.0 mi Variable 5.8 mph - 0.00 in   Overcast
4:54 PM 55.0 °F - 32.0 °F 42% 29.88 in 10.0 mi North 9.2 mph - N/A   Mostly Cloudy
5:54 PM 55.0 °F - 30.0 °F 38% 29.91 in 10.0 mi North 17.3 mph 21.9 mph N/A   Overcast
6:54 PM 53.1 °F - 32.0 °F 45% 29.93 in 10.0 mi North 10.4 mph - N/A   Partly Cloudy
7:54 PM 48.9 °F - 33.1 °F 54% 29.97 in 10.0 mi North 9.2 mph - N/A   Clear
8:54 PM 48.0 °F - 32.0 °F 54% 30.00 in 10.0 mi North 4.6 mph - N/A   Clear
9:54 PM 41.0 °F 38.0 °F 33.1 °F 73% 30.01 in 10.0 mi SW 4.6 mph - N/A   Clear
10:54 PM 39.9 °F - 32.0 °F 73% 30.02 in 10.0 mi Calm Calm - N/A   Clear
11:54 PM 35.1 °F 31.0 °F 33.1 °F 92% 30.04 in 10.0 mi WNW 4.6 mph - N/A   Clear